Tracking 17558 objects as of 9-February-2016
HD Live streaming from Space Station
objects crossing your sky now

GLOBALSTAR M044

Track GLOBALSTAR M044 now!
10-day predictions
GLOBALSTAR M044 is classified as:


NORAD ID: 25678
Int'l Code: 1999-019C
Perigee: 1,727.7 km
Apogee: 1,736.9 km
Inclination: 52.0 °
Period: 121.0 minutes
Semi major axis: 8103 km
RCS: 2.4818 m2 (large)
Launch date: April 15, 1999
Source: Globalstar (GLOB)
Launch site: TYURATAM MISSILE AND SPACE COMPLEX (TTMTR)
Your satellite tracking list
Your tracking list is empty





NASA's NSSDC Master Catalog

Two Line Element Set (TLE):
1 25678U 99019C   16040.15384057 -.00000069  00000-0  20966-3 0  9992
2 25678  51.9970  94.8329 0005644 287.0264 173.9426 11.9016955764549
Source of the keplerian elements: AFSPC

N2YO: 1071